QPF
0.07 0.08 0.07 0.08 0.08 0.07 0.06 0.06 0.06 0.05 0.04 0.04 0.05 0.04 0.03 0.02 0.02 0.02 0.03 0.03 0.02 0.01 0.01 0.00 0.00 0.01 0.01 0.01 0.01 0.02 0.02 0.03 0.04 0.05 0.05 0.05 0.05 0.05
0.04 0.06 0.06 0.07 0.07 0.07 0.06 0.06 0.06 0.06 0.05 0.05 0.06 0.06 0.05 0.03 0.02 0.02 0.03 0.04 0.03 0.02 0.02 0.01 0.01 0.01 0.01 0.01 0.01 0.02 0.02 0.02 0.03 0.03 0.04 0.04 0.04 0.04
0.02 0.02 0.03 0.04 0.04 0.05 0.05 0.05 0.05 0.06 0.07 0.06 0.07 0.07 0.06 0.04 0.03 0.02 0.03 0.03 0.03 0.03 0.02 0.02 0.02 0.02 0.02 0.02 0.02 0.02 0.02 0.02 0.02 0.03 0.03 0.04 0.05 0.05
0.02 0.02 0.02 0.02 0.02 0.03 0.03 0.03 0.04 0.04 0.04 0.03 0.04 0.04 0.03 0.03 0.03 0.03 0.02 0.02 0.03 0.03 0.03 0.02 0.02 0.01 0.01 0.02 0.02 0.02 0.02 0.02 0.02 0.03 0.03 0.04 0.05 0.04
0.02 0.02 0.01 0.02 0.02 0.02 0.03 0.03 0.03 0.03 0.03 0.02 0.02 0.02 0.02 0.02 0.02 0.03 0.03 0.03 0.02 0.02 0.02 0.02 0.01 0.01 0.01 0.01 0.01 0.02 0.02 0.02 0.02 0.03 0.05 0.06 0.06 0.05
0.02 0.01 0.02 0.02 0.02 0.02 0.02 0.02 0.03 0.02 0.02 0.02 0.01 0.02 0.02 0.03 0.03 0.04 0.04 0.03 0.02 0.01 0.01 0.01 0.02 0.01 0.01 0.01 0.01 0.01 0.02 0.02 0.03 0.03 0.05 0.06 0.06 0.06
0.02 0.02 0.02 0.02 0.02 0.01 0.01 0.02 0.03 0.04 0.04 0.03 0.03 0.04 0.04 0.04 0.05 0.04 0.03 0.03 0.02 0.02 0.01 0.01 0.01 0.02 0.01 0.01 0.01 0.01 0.01 0.01 0.02 0.02 0.03 0.04 0.03 0.04
0.02 0.02 0.02 0.01 0.01 0.01 0.01 0.01 0.02 0.03 0.04 0.05 0.05 0.06 0.06 0.05 0.06 0.06 0.04 0.03 0.03 0.03 0.02 0.02 0.01 0.01 0.02 0.02 0.02 0.02 0.01 0.01 0.01 0.02 0.02 0.03 0.04 0.04
0.01 0.01 0.01 0.01 0.01 0.01 0.01 0.01 0.01 0.01 0.02 0.03 0.04 0.05 0.07 0.07 0.08 0.08 0.07 0.03 0.03 0.03 0.03 0.03 0.02 0.02 0.02 0.02 0.02 0.02 0.02 0.02 0.02 0.02 0.03 0.03 0.03 0.04
0.02 0.02 0.02 0.01 0.01 0.02 0.02 0.01 0.01 0.01 0.02 0.02 0.03 0.03 0.04 0.06 0.08 0.09 0.09 0.07 0.05 0.04 0.04 0.04 0.03 0.03 0.02 0.02 0.02 0.02 0.02 0.02 0.02 0.03 0.03 0.03 0.03 0.04
0.03 0.03 0.03 0.02 0.02 0.02 0.02 0.03 0.03 0.02 0.03 0.04 0.04 0.03 0.03 0.04 0.07 0.08 0.08 0.07 0.04 0.04 0.04 0.04 0.03 0.04 0.03 0.02 0.02 0.03 0.02 0.02 0.02 0.03 0.04 0.04 0.04 0.04
0.09 0.08 0.07 0.05 0.04 0.03 0.02 0.02 0.02 0.02 0.02 0.02 0.02 0.02 0.03 0.04 0.06 0.07 0.09 0.09 0.07 0.06 0.06 0.05 0.04 0.05 0.04 0.02 0.03 0.04 0.03 0.02 0.04 0.04 0.04 0.04 0.04 0.04
0.15 0.13 0.10 0.09 0.07 0.06 0.05 0.04 0.04 0.03 0.02 0.02 0.02 0.03 0.03 0.04 0.04 0.06 0.07 0.10 0.12 0.10 0.09 0.07 0.06 0.06 0.05 0.04 0.04 0.05 0.04 0.04 0.04 0.04 0.04 0.04 0.05 0.05
0.10 0.09 0.08 0.07 0.07 0.07 0.07 0.06 0.06 0.05 0.04 0.04 0.04 0.03 0.02 0.03 0.04 0.05 0.06 0.08 0.10 0.12 0.12 0.11 0.08 0.08 0.08 0.07 0.07 0.08 0.09 0.08 0.07 0.08 0.08 0.08 0.08 0.08
0.04 0.04 0.04 0.05 0.05 0.05 0.05 0.05 0.05 0.04 0.05 0.05 0.05 0.05 0.04 0.03 0.04 0.05 0.06 0.07 0.08 0.09 0.10 0.10 0.10 0.10 0.11 0.10 0.09 0.08 0.08 0.09 0.08 0.10 0.11 0.12 0.13 0.14
0.03 0.04 0.04 0.04 0.04 0.04 0.04 0.04 0.04 0.03 0.04 0.04 0.04 0.04 0.04 0.03 0.03 0.04 0.04 0.05 0.07 0.07 0.07 0.08 0.07 0.08 0.09 0.08 0.08 0.08 0.07 0.08 0.08 0.10 0.11 0.13 0.14 0.14
0.02 0.02 0.02 0.02 0.02 0.02 0.02 0.02 0.02 0.03 0.03 0.03 0.03 0.03 0.03 0.03 0.02 0.02 0.03 0.04 0.04 0.04 0.04 0.04 0.04 0.05 0.06 0.07 0.08 0.08 0.08 0.09 0.08 0.10 0.11 0.11 0.12 0.12
0.02 0.01 0.01 0.01 0.01 0.01 0.02 0.02 0.02 0.02 0.02 0.04 0.03 0.03 0.03 0.03 0.02 0.02 0.02 0.02 0.03 0.03 0.03 0.04 0.05 0.05 0.05 0.05 0.06 0.07 0.08 0.09 0.08 0.08 0.09 0.10 0.10 0.10
0.02 0.01 0.01 0.01 0.01 0.01 0.01 0.02 0.02 0.02 0.02 0.03 0.03 0.03 0.02 0.02 0.02 0.02 0.02 0.02 0.02 0.02 0.03 0.05 0.06 0.06 0.06 0.06 0.05 0.06 0.07 0.07 0.07 0.08 0.07 0.07 0.08 0.08
0.01 0.01 0.01 0.01 0.01 0.01 0.01 0.01 0.02 0.02 0.02 0.02 0.02 0.02 0.02 0.03 0.03 0.03 0.03 0.03 0.04 0.04 0.04 0.05 0.06 0.06 0.05 0.05 0.05 0.05 0.05 0.06 0.07 0.07 0.07 0.07 0.07 0.07
0.01 0.02 0.01 0.01 0.02 0.02 0.02 0.02 0.02 0.02 0.02 0.02 0.02 0.02 0.02 0.03 0.03 0.03 0.03 0.03 0.04 0.04 0.04 0.03 0.04 0.05 0.06 0.07 0.06 0.05 0.05 0.05 0.05 0.06 0.06 0.06 0.06 0.06
0.01 0.01 0.01 0.01 0.02 0.02 0.03 0.03 0.02 0.02 0.03 0.03 0.03 0.02 0.03 0.04 0.04 0.05 0.05 0.05 0.05 0.05 0.04 0.04 0.04 0.04 0.04 0.06 0.07 0.06 0.05 0.04 0.04 0.05 0.06 0.06 0.06 0.06
0.01 0.01 0.01 0.01 0.01 0.02 0.03 0.03 0.02 0.02 0.03 0.04 0.05 0.04 0.04 0.04 0.04 0.05 0.05 0.05 0.05 0.05 0.05 0.05 0.04 0.04 0.04 0.05 0.05 0.05 0.04 0.04 0.04 0.04 0.05 0.06 0.06 0.05
MSLP
1011.70 1011.89 1012.17 1012.55 1013.02 1013.56 1014.14 1014.75 1015.35 1015.92 1016.45 1016.94 1017.38 1017.80 1018.19 1018.56 1018.91 1019.25 1019.57 1019.87 1020.13 1020.34 1020.50 1020.61 1020.66 1020.66 1020.61 1020.52 1020.41 1020.28 1020.14 1020.00 1019.87 1019.75 1019.65 1019.55 1019.46 1019.37
1011.57 1011.69 1011.88 1012.15 1012.51 1012.95 1013.46 1014.02 1014.61 1015.20 1015.79 1016.35 1016.88 1017.37 1017.83 1018.26 1018.66 1019.04 1019.37 1019.68 1019.95 1020.17 1020.36 1020.49 1020.57 1020.61 1020.59 1020.53 1020.43 1020.29 1020.14 1019.97 1019.80 1019.64 1019.49 1019.35 1019.23 1019.12
1011.59 1011.68 1011.81 1011.99 1012.24 1012.59 1013.01 1013.50 1014.04 1014.62 1015.22 1015.83 1016.41 1016.97 1017.49 1017.97 1018.40 1018.79 1019.14 1019.45 1019.71 1019.94 1020.13 1020.28 1020.40 1020.47 1020.50 1020.48 1020.42 1020.31 1020.16 1019.98 1019.79 1019.59 1019.39 1019.21 1019.04 1018.89
1011.71 1011.81 1011.91 1012.04 1012.22 1012.47 1012.80 1013.21 1013.69 1014.23 1014.82 1015.42 1016.04 1016.63 1017.19 1017.70 1018.16 1018.55 1018.89 1019.18 1019.43 1019.65 1019.84 1020.00 1020.14 1020.25 1020.33 1020.36 1020.35 1020.29 1020.17 1020.01 1019.82 1019.60 1019.37 1019.15 1018.93 1018.73
1011.84 1011.99 1012.12 1012.24 1012.38 1012.57 1012.82 1013.14 1013.54 1014.02 1014.57 1015.15 1015.76 1016.37 1016.94 1017.47 1017.93 1018.32 1018.65 1018.91 1019.13 1019.32 1019.49 1019.65 1019.80 1019.94 1020.07 1020.16 1020.21 1020.20 1020.14 1020.03 1019.86 1019.65 1019.41 1019.15 1018.90 1018.65
1011.90 1012.14 1012.34 1012.50 1012.64 1012.80 1012.99 1013.24 1013.57 1013.98 1014.46 1015.00 1015.59 1016.18 1016.75 1017.27 1017.73 1018.11 1018.42 1018.65 1018.84 1018.99 1019.13 1019.26 1019.41 1019.56 1019.71 1019.85 1019.96 1020.02 1020.03 1019.97 1019.84 1019.66 1019.43 1019.17 1018.89 1018.61
1011.79 1012.17 1012.47 1012.72 1012.91 1013.07 1013.24 1013.44 1013.71 1014.04 1014.46 1014.95 1015.48 1016.05 1016.60 1017.12 1017.57 1017.94 1018.22 1018.42 1018.57 1018.68 1018.77 1018.86 1018.98 1019.12 1019.28 1019.45 1019.60 1019.71 1019.77 1019.77 1019.70 1019.56 1019.36 1019.11 1018.83 1018.53
1011.48 1012.01 1012.46 1012.82 1013.10 1013.31 1013.50 1013.68 1013.89 1014.17 1014.52 1014.95 1015.44 1015.96 1016.49 1016.99 1017.43 1017.79 1018.06 1018.24 1018.34 1018.40 1018.44 1018.49 1018.56 1018.66 1018.80 1018.96 1019.12 1019.26 1019.37 1019.41 1019.39 1019.29 1019.12 1018.90 1018.62 1018.32
1010.97 1011.66 1012.27 1012.79 1013.18 1013.48 1013.71 1013.90 1014.09 1014.32 1014.62 1014.99 1015.42 1015.91 1016.41 1016.89 1017.32 1017.67 1017.92 1018.08 1018.16 1018.18 1018.17 1018.16 1018.16 1018.21 1018.29 1018.42 1018.56 1018.69 1018.80 1018.87 1018.87 1018.80 1018.66 1018.45 1018.20 1017.90
1010.35 1011.20 1011.97 1012.64 1013.18 1013.58 1013.88 1014.10 1014.29 1014.49 1014.73 1015.05 1015.43 1015.87 1016.34 1016.80 1017.22 1017.56 1017.81 1017.96 1018.02 1018.00 1017.94 1017.87 1017.81 1017.78 1017.80 1017.85 1017.93 1018.03 1018.11 1018.16 1018.16 1018.09 1017.96 1017.76 1017.52 1017.23
1009.74 1010.73 1011.65 1012.47 1013.14 1013.65 1014.02 1014.28 1014.48 1014.66 1014.87 1015.12 1015.45 1015.84 1016.26 1016.70 1017.10 1017.44 1017.69 1017.84 1017.88 1017.84 1017.75 1017.62 1017.49 1017.39 1017.32 1017.29 1017.29 1017.31 1017.33 1017.33 1017.30 1017.21 1017.06 1016.86 1016.61 1016.32
1009.28 1010.38 1011.42 1012.36 1013.14 1013.74 1014.18 1014.48 1014.68 1014.84 1015.01 1015.21 1015.47 1015.80 1016.17 1016.57 1016.94 1017.27 1017.51 1017.66 1017.70 1017.66 1017.54 1017.37 1017.19 1017.02 1016.87 1016.75 1016.66 1016.60 1016.54 1016.47 1016.37 1016.23 1016.05 1015.83 1015.56 1015.27
1009.10 1010.24 1011.36 1012.36 1013.22 1013.88 1014.36 1014.68 1014.89 1015.02 1015.14 1015.28 1015.48 1015.73 1016.04 1016.38 1016.72 1017.02 1017.25 1017.40 1017.45 1017.40 1017.27 1017.09 1016.88 1016.65 1016.44 1016.24 1016.08 1015.92 1015.78 1015.63 1015.46 1015.26 1015.03 1014.77 1014.48 1014.16
1009.21 1010.36 1011.48 1012.50 1013.38 1014.06 1014.55 1014.87 1015.06 1015.16 1015.23 1015.30 1015.42 1015.60 1015.84 1016.12 1016.40 1016.67 1016.88 1017.03 1017.08 1017.04 1016.92 1016.73 1016.51 1016.26 1016.01 1015.76 1015.53 1015.31 1015.09 1014.87 1014.63 1014.37 1014.09 1013.78 1013.46 1013.13
1009.57 1010.67 1011.74 1012.72 1013.56 1014.21 1014.68 1014.97 1015.13 1015.19 1015.21 1015.23 1015.28 1015.39 1015.55 1015.76 1015.99 1016.21 1016.40 1016.53 1016.58 1016.56 1016.45 1016.29 1016.07 1015.83 1015.56 1015.29 1015.03 1014.76 1014.49 1014.21 1013.92 1013.61 1013.28 1012.94 1012.59 1012.25
1010.07 1011.06 1012.02 1012.91 1013.66 1014.25 1014.67 1014.92 1015.04 1015.07 1015.05 1015.02 1015.02 1015.07 1015.16 1015.31 1015.48 1015.66 1015.81 1015.92 1015.98 1015.96 1015.88 1015.74 1015.56 1015.33 1015.08 1014.82 1014.54 1014.26 1013.96 1013.65 1013.33 1012.99 1012.63 1012.27 1011.90 1011.54
1010.53 1011.37 1012.19 1012.94 1013.58 1014.08 1014.43 1014.64 1014.74 1014.75 1014.71 1014.66 1014.63 1014.64 1014.69 1014.79 1014.91 1015.04 1015.17 1015.26 1015.31 1015.30 1015.24 1015.13 1014.98 1014.78 1014.56 1014.32 1014.05 1013.77 1013.47 1013.16 1012.82 1012.46 1012.09 1011.72 1011.34 1010.98
1010.79 1011.47 1012.12 1012.73 1013.24 1013.65 1013.94 1014.12 1014.21 1014.22 1014.20 1014.16 1014.13 1014.14 1014.17 1014.24 1014.33 1014.43 1014.52 1014.60 1014.64 1014.63 1014.59 1014.50 1014.37 1014.20 1014.00 1013.78 1013.54 1013.27 1012.98 1012.67 1012.33 1011.98 1011.61 1011.23 1010.86 1010.50
1010.76 1011.28 1011.78 1012.24 1012.65 1012.97 1013.22 1013.39 1013.50 1013.55 1013.57 1013.58 1013.60 1013.62 1013.67 1013.73 1013.80 1013.88 1013.95 1014.00 1014.02 1014.01 1013.97 1013.88 1013.77 1013.62 1013.44 1013.23 1013.00 1012.74 1012.45 1012.14 1011.81 1011.46 1011.09 1010.72 1010.35 1009.99
1010.44 1010.82 1011.19 1011.54 1011.86 1012.14 1012.38 1012.57 1012.72 1012.84 1012.94 1013.02 1013.09 1013.16 1013.24 1013.31 1013.38 1013.44 1013.49 1013.52 1013.52 1013.49 1013.43 1013.34 1013.22 1013.07 1012.88 1012.67 1012.43 1012.16 1011.87 1011.55 1011.21 1010.86 1010.49 1010.12 1009.75 1009.39
1009.92 1010.20 1010.48 1010.75 1011.03 1011.29 1011.55 1011.79 1012.01 1012.21 1012.39 1012.56 1012.70 1012.83 1012.94 1013.03 1013.10 1013.15 1013.17 1013.17 1013.15 1013.09 1013.01 1012.90 1012.75 1012.58 1012.37 1012.14 1011.87 1011.57 1011.25 1010.91 1010.56 1010.19 1009.81 1009.43 1009.05 1008.68
1009.33 1009.55 1009.78 1010.03 1010.30 1010.59 1010.88 1011.19 1011.49 1011.78 1012.04 1012.28 1012.49 1012.66 1012.80 1012.90 1012.96 1012.99 1012.99 1012.96 1012.90 1012.81 1012.70 1012.55 1012.38 1012.17 1011.92 1011.65 1011.34 1011.00 1010.64 1010.26 1009.87 1009.47 1009.07 1008.67 1008.28 1007.89
1008.81 1009.02 1009.25 1009.52 1009.81 1010.15 1010.51 1010.88 1011.26 1011.62 1011.95 1012.24 1012.48 1012.67 1012.81 1012.90 1012.94 1012.94 1012.90 1012.84 1012.75 1012.63 1012.48 1012.30 1012.09 1011.84 1011.56 1011.24 1010.88 1010.49 1010.08 1009.65 1009.21 1008.78 1008.34 1007.92 1007.50 1007.09
Thickness
5743 5742 5741 5742 5741 5740 5739 5736 5731 5727 5729 5732 5734 5735 5734 5733 5731 5729 5728 5726 5725 5723 5722 5720 5719 5718 5717 5715 5714 5713 5711 5710 5709 5707 5706 5705 5703 5702
5738 5737 5736 5738 5737 5736 5735 5734 5732 5728 5726 5730 5730 5731 5729 5729 5726 5726 5725 5723 5722 5720 5719 5717 5716 5715 5713 5712 5711 5710 5709 5708 5707 5705 5704 5702 5701 5699
5734 5733 5731 5731 5732 5732 5730 5729 5728 5727 5723 5725 5727 5726 5724 5723 5722 5722 5722 5721 5721 5718 5716 5714 5713 5711 5710 5709 5708 5707 5706 5705 5703 5702 5701 5699 5698 5696
5729 5727 5726 5727 5725 5725 5724 5724 5723 5722 5720 5717 5719 5720 5719 5719 5718 5717 5719 5719 5718 5716 5713 5711 5709 5708 5706 5705 5704 5703 5703 5702 5700 5699 5697 5696 5694 5692
5724 5723 5722 5720 5719 5719 5718 5719 5719 5719 5717 5715 5715 5715 5715 5715 5714 5714 5715 5713 5715 5714 5711 5708 5706 5704 5702 5701 5700 5699 5699 5698 5697 5695 5694 5692 5690 5688
5720 5719 5717 5716 5715 5714 5714 5714 5714 5714 5712 5711 5710 5710 5710 5710 5709 5709 5708 5709 5709 5711 5708 5706 5703 5701 5699 5697 5696 5695 5694 5693 5692 5691 5689 5687 5685 5683
5715 5714 5713 5711 5709 5708 5710 5709 5709 5708 5707 5706 5705 5705 5705 5703 5703 5705 5704 5704 5705 5705 5704 5703 5701 5699 5696 5693 5691 5690 5688 5687 5686 5685 5683 5681 5679 5678
5708 5708 5708 5706 5703 5701 5700 5700 5700 5700 5700 5699 5699 5698 5697 5698 5698 5698 5698 5697 5696 5700 5697 5697 5697 5695 5694 5692 5689 5686 5683 5681 5680 5679 5677 5676 5674 5673
5701 5701 5702 5701 5698 5697 5695 5693 5692 5691 5690 5691 5691 5692 5692 5692 5690 5690 5689 5689 5689 5692 5689 5688 5690 5688 5689 5688 5684 5680 5677 5675 5674 5672 5671 5670 5669 5668
5694 5693 5692 5691 5690 5688 5689 5688 5688 5687 5685 5684 5684 5685 5685 5683 5682 5682 5681 5682 5683 5684 5682 5678 5681 5681 5682 5681 5677 5674 5671 5669 5667 5666 5664 5663 5662 5661
5686 5684 5683 5682 5679 5678 5679 5679 5680 5680 5678 5676 5676 5676 5675 5674 5673 5674 5673 5673 5674 5676 5675 5672 5674 5673 5673 5673 5671 5667 5664 5662 5660 5659 5657 5656 5655 5654
5677 5677 5673 5671 5669 5668 5670 5670 5670 5671 5671 5671 5669 5668 5668 5667 5665 5664 5665 5664 5666 5667 5668 5664 5665 5663 5662 5665 5664 5660 5657 5655 5653 5651 5650 5648 5647 5646
5669 5669 5667 5661 5658 5657 5658 5660 5659 5660 5662 5663 5663 5663 5661 5660 5659 5657 5656 5656 5656 5657 5658 5654 5653 5653 5651 5652 5653 5653 5651 5649 5646 5644 5642 5640 5639 5639
5659 5659 5657 5652 5650 5648 5649 5649 5649 5650 5654 5655 5656 5655 5654 5653 5652 5650 5648 5647 5646 5646 5646 5644 5643 5641 5640 5640 5641 5642 5641 5641 5639 5637 5635 5633 5631 5630
5650 5647 5645 5643 5642 5642 5640 5640 5641 5644 5646 5646 5646 5646 5645 5644 5643 5642 5641 5639 5638 5638 5637 5635 5633 5632 5630 5630 5631 5631 5630 5630 5629 5628 5627 5625 5623 5622
5640 5638 5636 5635 5635 5635 5634 5634 5635 5637 5637 5637 5637 5637 5637 5636 5635 5635 5634 5632 5630 5630 5628 5626 5624 5622 5621 5621 5621 5620 5620 5619 5619 5618 5618 5616 5615 5613
5631 5632 5632 5631 5630 5629 5629 5628 5628 5628 5628 5629 5629 5628 5628 5627 5626 5626 5624 5624 5622 5621 5620 5618 5617 5614 5613 5611 5611 5610 5610 5609 5608 5608 5606 5606 5605 5604
5623 5625 5624 5623 5622 5621 5620 5619 5619 5619 5619 5619 5619 5619 5618 5617 5616 5616 5615 5613 5612 5612 5611 5610 5608 5606 5604 5604 5601 5601 5600 5600 5598 5597 5595 5595 5595 5595
5616 5618 5617 5616 5615 5615 5613 5612 5611 5610 5609 5609 5609 5608 5608 5608 5607 5606 5605 5603 5602 5601 5600 5599 5598 5596 5595 5595 5594 5590 5589 5589 5588 5586 5586 5586 5586 5585
5610 5610 5610 5609 5609 5608 5606 5605 5604 5603 5601 5600 5600 5599 5598 5598 5597 5596 5595 5592 5591 5590 5590 5589 5587 5585 5584 5584 5584 5583 5578 5578 5577 5577 5577 5576 5576 5574
5605 5604 5603 5603 5602 5600 5598 5597 5595 5594 5592 5591 5591 5590 5589 5588 5586 5586 5585 5581 5580 5581 5580 5580 5577 5574 5575 5575 5575 5574 5572 5567 5566 5566 5567 5567 5567 5566
5600 5598 5596 5595 5594 5592 5590 5589 5587 5586 5584 5582 5582 5581 5580 5579 5578 5576 5576 5575 5574 5573 5572 5571 5569 5568 5568 5567 5566 5565 5563 5560 5557 5555 5554 5555 5557 5558
5593 5591 5590 5588 5587 5585 5583 5582 5580 5579 5577 5575 5574 5572 5571 5569 5569 5568 5568 5567 5566 5565 5563 5562 5561 5560 5559 5558 5557 5556 5554 5553 5552 5549 5547 5545 5544 5544